Showing default

IRIDIUM 156, 43576

Orbit data source: Space-Track

IRIDIUM 156, 43576 is a payload satellite owned by Iridium (US) in LEO that was launched on Wed, 25 Jul 2018 UTC via an FALCON 9 launch vehicle from the Air Force Western Test Range (AFWTR). Payload-class satellites include a variety of spacecraft equipped with specific instruments for various scientific and technological missions. These include communications satellites like Starlink; space stations such as the ISS; scientific satellites like the Hubble; Earth observation satellites from companies like Planet Labs, Umbra, and HawkEye 360; GPS; miniature CubeSats for education and research; and military/defense satellites.

Loading next visibility...
Identifier
43576, 2018-061H
Orbit
LEO
Country
Flag of USUS
Related business
Manufacturer
NGIS SSG Gilbert
Mission
Operational Commercial Communications
Bus & Motor
ELITEBUS, Unknown motor
Mass
860 kg wet, 700 kg dry
Launch date (UTC)
2018-07-25 (7 years ago)
Launch vehicle
FALCON 9
Launch site
Air Force Western Test Range (AFWTR)
Object type
Payload
Rocket body
Debris
Shape & HBR
Trap Box + 2 Pan, 4.8 m
Radar Cross Section
10.154 m², Large (>1 m²)

Expand to show TLE details & history
Last TLE update: 22 hours ago

TLE from 22 hours ago
0 IRIDIUM 156
1 43576U 18061H   25304.62553674  .00000125  00000-0  37683-4 0  9992
2 43576  86.3979 152.2829 0001861  81.8869 278.2538 14.34218293380614
Epoch: 2025-10-31T15:00Z
TLE epoch observation values (Epoch: 2025-10-31T15:00:46.374Z)
Latitude
-0°
Longitude
-113.07761°
Altitude
780.525 km
Speed
7.464 km/s
True Right ascension
10h 09m 07s
True Declination
0° 00' 00"
Sunlit
Object was in daylight at epoch
Visualization orbit readout
Latitude
Unknown
Longitude
Unknown
Altitude
Unknown
Speed
Unknown
Apparent Right ascension
Unknown
Apparent Declination
Unknown
Sunlit
N/A
Visualization observer readout
Local Sidereal Time
08:18:52
Azimuth
Unknown
Elevation
Unknown
Doppler factor
Unknown
Orbital elements
Apogee altitude
775.961 km
Perigee altitude
773.299 km
Semi-major axis
7,152.767 km
Eccentricity
0.00019
Inclination
86.3979°
RAAN
152.2829°
Arg. of periapsis
81.8869°
True anomaly
278.23269°
Mean anomaly
278.2538°
Eccentric anomaly
278.24325°
Mean motion
3.58783 °/min
Orbital period
100.34 mins
BSTAR
0.000037683
Loading maneuver chart data...
Computing Atmospheric mass density...
Loading historical data...
Loading historical data...
Loading historical data...
Loading historical data...
Loading historical data...
Loading historical data...
Loading historical data...

Documentation

Showing up to 5 results
|